Location: Newark
(39.6889°N, 28.1522°E)
Time: 17:39:35
(UTC+00:00)

Envisat - Visible Passes

Search period start: 19 March 2019 00:00
Search period end: 29 March 2019 00:00
Orbit: 764 x 766 km, 98.2° (Epoch: 19 March)

Date Brightness Start Highest point End Pass type
(mag) Time Alt. Az. Time Alt. Az. Time Alt. Az.
19 Mar 3.9 17:09:07 10° S 17:14:03 52° W 17:19:01 10° NNW visible
20 Mar 6.0 18:14:33 10° WSW 18:16:47 13° W 18:19:02 10° WNW visible
21 Mar 5.0 17:35:19 10° SSW 17:39:42 29° W 17:44:08 10° NW visible
22 Mar 3.5 16:57:47 10° S 17:02:49 67° WSW 17:07:53 10° NNW visible
23 Mar 5.8 18:02:16 10° SW 18:05:27 17° W 18:08:39 10° NW visible
24 Mar 4.6 17:23:45 10° SSW 17:28:25 37° W 17:33:08 10° NNW visible
25 Mar 3.1 16:46:31 10° SSE 16:51:36 85° WSW 16:56:43 10° NNW visible
26 Mar 5.6 17:50:20 10° SW 17:54:08 21° W 17:57:57 10° NW visible
27 Mar 4.1 17:12:17 10° S 17:17:10 47° W 17:22:04 10° NNW visible
28 Mar 6.1 18:18:17 10° WSW 18:19:57 11° W 18:21:36 10° WNW visible
